W0RMT-13 Weather Reports


Display with metric or nautical units.
time (UTC)temp
F
wind
direction
speed
MPH
gust
MPH
rain 1hr
in
rain 24hr
in
rain mn
in
humidity
%
barometer
mb
20210921063412 47 141 0.0 8.0 0.00 0.00 0.00 76
20210921063327 47 130 0.0 8.0 0.00 0.00 0.00 77
20210921062907 47 167 0.0 5.0 0.00 0.00 0.00 80
20210921062402 47 144 0.0 0.0 0.00 0.00 0.00 87
20210921062319 47 143 0.0 0.0 0.00 0.00 0.00 87
20210921061857 47 159 0.0 0.0 0.00 0.00 0.00 87
20210921061353 47 158 0.0 0.0 0.00 0.00 0.00 86
20210921061309 47 158 0.0 0.0 0.00 0.00 0.00 87
20210921060849 47 157 0.0 0.0 0.00 0.00 0.00 86
20210921060344 47 133 0.0 0.0 0.00 0.00 0.00 87
20210921060300 47 131 0.0 0.0 0.00 0.00 0.00 87
20210921055839 47 157 0.0 0.0 0.00 0.00 0.00 89
20210921055334 47 167 0.0 0.0 0.00 0.00 0.00 90
20210921055250 47 167 0.0 0.0 0.00 0.00 0.00 90
20210921054830 47 167 0.0 0.0 0.00 0.00 0.00 91
20210921054332 47 167 0.0 0.0 0.00 0.00 0.00 91
20210921054242 47 167 0.0 0.0 0.00 0.00 0.00 91
20210921053821 46 168 0.0 0.0 0.00 0.00 0.00 91
20210921053318 46 169 0.0 2.0 0.00 0.00 0.00 92
20210921053233 46 149 0.0 2.0 0.00 0.00 0.00 92
20210921052810 46 145 0.0 2.0 0.00 0.00 0.00 93
20210921052306 46 139 0.0 0.0 0.00 0.00 0.00 93
20210921052224 46 139 0.0 0.0 0.00 0.00 0.00 93
20210921051801 46 139 0.0 0.0 0.00 0.00 0.00 94
20210921051257 46 159 0.0 0.0 0.00 0.00 0.00 94
20210921051214 46 165 0.0 0.0 0.00 0.00 0.00 94
20210921050752 46 165 0.0 0.0 0.00 0.00 0.00 94
20210921050247 46 165 0.0 0.0 0.00 0.00 0.00 93
20210921050203 46 165 0.0 0.0 0.00 0.00 0.00 93
20210921045743 46 165 0.0 0.0 0.00 0.00 0.00 93
20210921045235 47 165 0.0 0.0 0.00 0.00 0.00 92
20210921045203 47 165 0.0 0.0 0.00 0.00 0.00 92
20210921044730 47 165 0.0 0.0 0.00 0.00 0.00 92
20210921044221 47 165 0.0 0.0 0.00 0.00 0.00 91
20210921044201 47 165 0.0 0.0 0.00 0.00 0.00 91
20210921043716 47 165 0.0 0.0 0.00 0.00 0.00 90
20210921043211 47 165 0.0 0.0 0.00 0.00 0.00 89
20210921043200 47 165 0.0 0.0 0.00 0.00 0.00 89
20210921042705 47 165 0.0 0.0 0.00 0.00 0.00 88
20210921042200 48 165 0.0 0.0 0.00 0.00 0.00 88
20210921041653 48 167 0.0 0.0 0.00 0.00 0.00 87
20210921041148 48 165 0.0 0.0 0.00 0.00 0.00 85
20210921040641 48 160 0.0 0.0 0.00 0.00 0.00 84
20210921040158 48 139 0.0 0.0 0.00 0.00 0.00 85
20210921040136 48 134 0.0 0.0 0.00 0.00 0.00 85
20210921035632 49 198 0.0 0.0 0.00 0.00 0.00 84
20210921035126 49 199 0.0 5.0 0.00 0.00 0.00 82
20210921034622 49 186 0.0 5.0 0.00 0.00 0.00 80
20210921034147 50 177 0.0 2.0 0.00 0.00 0.00 79
20210921034113 50 172 0.0 2.0 0.00 0.00 0.00 79
20210921033609 50 181 0.0 2.0 0.00 0.00 0.00 77
20210921033146 51 195 0.0 2.0 0.00 0.00 0.00 74
20210921033103 51 196 0.0 2.0 0.00 0.00 0.00 73
20210921032558 51 73 0.0 2.0 0.00 0.00 0.00 71
20210921032145 52 117 0.0 2.0 0.00 0.00 0.00 70
20210921032053 52 188 0.0 5.0 0.00 0.00 0.00 70
20210921031547 52 221 0.0 5.0 0.00 0.00 0.00 68
20210921031147 53 195 0.0 5.0 0.00 0.00 0.00 65
20210921031040 53 171 0.0 5.0 0.00 0.00 0.00 65
20210921030534 53 136 1.0 5.0 0.00 0.00 0.00 60
20210921030145 53 110 0.0 5.0 0.00 0.00 0.00 58
20210921030029 53 205 3.0 5.0 0.00 0.00 0.00 58
20210921025524 53 36 0.0 8.0 0.00 0.00 0.00 57
20210921025136 54 355 0.0 8.0 0.00 0.00 0.00 56
20210921025019 54 266 2.0 5.0 0.00 0.00 0.00 56
20210921024513 54 242 1.0 10.0 0.00 0.00 0.00 56
20210921024134 54 195 0.0 10.0 0.00 0.00 0.00 56
20210921024007 54 107 0.0 13.0 0.00 0.00 0.00 55
20210921023500 54 326 1.0 13.0 0.00 0.00 0.00 55
20210921023134 55 290 2.0 13.0 0.00 0.00 0.00 54
20210921022955 55 163 1.0 10.0 0.00 0.00 0.00 54
20210921022449 55 11 1.0 10.0 0.00 0.00 0.00 53
20210921022129 55 340 4.0 10.0 0.00 0.00 0.00 51
20210921021942 55 100 1.0 10.0 0.00 0.00 0.00 51
20210921021436 56 168 0.0 10.0 0.00 0.00 0.00 50
20210921021130 56 135 0.0 10.0 0.00 0.00 0.00 50
20210921020930 56 32 0.0 10.0 0.00 0.00 0.00 49
20210921020421 56 348 0.0 10.0 0.00 0.00 0.00 49
20210921020124 57 131 1.0 10.0 0.00 0.00 0.00 49
20210921015913 57 131 1.0 10.0 0.00 0.00 0.00 49
20210921015408 57 156 1.0 8.0 0.00 0.00 0.00 48
20210921015124 57 48 2.0 10.0 0.00 0.00 0.00 48
20210921014902 58 121 2.0 10.0 0.00 0.00 0.00 48
20210921014403 58 154 0.0 10.0 0.00 0.00 0.00 46
20210921014122 58 41 5.0 10.0 0.00 0.00 0.00 45
20210921013900 58 48 5.0 10.0 0.00 0.00 0.00 44
20210921013356 59 141 0.0 10.0 0.00 0.00 0.00 41
20210921013112 59 79 4.0 10.0 0.00 0.00 0.00 39
20210921012851 59 71 6.0 10.0 0.00 0.00 0.00 34
20210921012347 59 68 1.0 10.0 0.00 0.00 0.00 31
20210921012103 59 46 4.0 10.0 0.00 0.00 0.00 31
20210921011839 59 122 2.0 10.0 0.00 0.00 0.00 30
20210921011333 59 28 2.0 8.0 0.00 0.00 0.00 31
20210921011101 59 114 3.0 8.0 0.00 0.00 0.00 31
20210921010827 60 46 3.0 8.0 0.00 0.00 0.00 30
20210921010324 60 89 0.0 5.0 0.00 0.00 0.00 30
20210921010102 60 78 3.0 5.0 0.00 0.00 0.00 30
20210921005817 60 84 1.0 5.0 0.00 0.00 0.00 30
20210921005310 60 54 3.0 5.0 0.00 0.00 0.00 30
20210921005059 60 54 3.0 5.0 0.00 0.00 0.00 30
20210921004805 60 67 1.0 5.0 0.00 0.00 0.00 30
20210921004259 61 60 1.0 5.0 0.00 0.00 0.00 30
20210921004100 61 315 2.0 8.0 0.00 0.00 0.00 29
20210921003753 61 106 0.0 8.0 0.00 0.00 0.00 29
20210921003248 61 66 4.0 13.0 0.00 0.00 0.00 29
20210921003059 61 128 0.0 13.0 0.00 0.00 0.00 30
20210921002745 61 68 0.0 13.0 0.00 0.00 0.00 29
20210921002238 61 121 3.0 5.0 0.00 0.00 0.00 29
20210921002059 61 114 0.0 8.0 0.00 0.00 0.00 31
20210921001731 61 67 1.0 8.0 0.00 0.00 0.00 31
20210921001226 61 184 0.0 8.0 0.00 0.00 0.00 32
20210921001100 62 186 0.0 2.0 0.00 0.00 0.00 32
20210921000721 62 238 1.0 5.0 0.00 0.00 0.00 32
20210921000216 62 161 0.0 5.0 0.00 0.00 0.00 31
20210921000058 62 65 1.0 5.0 0.00 0.00 0.00 32
20210920235709 62 141 1.0 2.0 0.00 0.00 0.00 31
20210920235202 62 140 0.0 5.0 0.00 0.00 0.00 31
20210920235056 62 153 0.0 5.0 0.00 0.00 0.00 32
20210920234655 62 128 0.0 5.0 0.00 0.00 0.00 32
20210920234149 62 107 0.0 5.0 0.00 0.00 0.00 31
20210920234054 62 146 1.0 5.0 0.00 0.00 0.00 31
20210920233643 62 138 0.0 5.0 0.00 0.00 0.00 31
20210920233137 63 140 1.0 5.0 0.00 0.00 0.00 31
20210920233053 63 138 1.0 5.0 0.00 0.00 0.00 31
20210920232631 63 167 0.0 5.0 0.00 0.00 0.00 31
20210920232121 63 187 0.0 2.0 0.00 0.00 0.00 31
20210920232047 63 182 0.0 5.0 0.00 0.00 0.00 31
20210920231617 63 118 0.0 5.0 0.00 0.00 0.00 30
20210920231116 63 171 0.0 5.0 0.00 0.00 0.00 30
20210920231045 63 221 0.0 5.0 0.00 0.00 0.00 31
20210920230612 63 126 0.0 5.0 0.00 0.00 0.00 30
20210920230104 64 99 0.0 5.0 0.00 0.00 0.00 29
20210920230043 64 144 0.0 5.0 0.00 0.00 0.00 29
20210920225558 64 113 1.0 5.0 0.00 0.00 0.00 29
20210920225052 65 56 2.0 5.0 0.00 0.00 0.00 30
20210920225042 65 29 0.0 5.0 0.00 0.00 0.00 30
20210920224546 65 140 0.0 5.0 0.00 0.00 0.00 29
20210920224040 66 150 0.0 5.0 0.00 0.00 0.00 29
20210920223535 66 238 3.0 5.0 0.00 0.00 0.00 29
20210920223037 66 235 0.0 13.0 0.00 0.00 0.00 29
20210920223027 66 192 0.0 13.0 0.00 0.00 0.00 28
20210920222518 67 110 3.0 13.0 0.00 0.00 0.00 27
20210920222029 67 114 0.0 2.0 0.00 0.00 0.00 27
20210920222018 67 114 0.0 2.0 0.00 0.00 0.00 28
20210920221511 67 144 0.0 2.0 0.00 0.00 0.00 27
20210920221027 68 146 0.0 5.0 0.00 0.00 0.00 27
20210920221005 68 111 0.0 5.0 0.00 0.00 0.00 27
20210920220500 68 152 0.0 8.0 0.00 0.00 0.00 26
20210920220025 69 44 2.0 8.0 0.00 0.00 0.00 26
20210920215953 69 210 0.0 8.0 0.00 0.00 0.00 26
20210920215447 69 153 0.0 5.0 0.00 0.00 0.00 26
20210920215015 69 104 1.0 8.0 0.00 0.00 0.00 27
20210920214943 69 70 2.0 8.0 0.00 0.00 0.00 27
20210920214437 69 328 1.0 8.0 0.00 0.00 0.00 26
20210920214015 69 5 0.0 5.0 0.00 0.00 0.00 26
20210920213932 69 162 0.0 5.0 0.00 0.00 0.00 25
20210920213427 69 211 0.0 5.0 0.00 0.00 0.00 25
20210920213006 69 310 1.0 5.0 0.00 0.00 0.00 25
20210920212922 69 205 0.0 5.0 0.00 0.00 0.00 25
20210920212417 68 183 0.0 10.0 0.00 0.00 0.00 25
20210920212006 68 129 0.0 10.0 0.00 0.00 0.00 26
20210920211911 68 167 2.0 10.0 0.00 0.00 0.00 26
20210920211406 68 49 5.0 13.0 0.00 0.00 0.00 27
20210920211006 68 68 3.0 13.0 0.00 0.00 0.00 25
20210920210900 68 237 0.0 13.0 0.00 0.00 0.00 29
20210920210355 68 69 3.0 8.0 0.00 0.00 0.00 25
20210920210006 68 153 0.0 10.0 0.00 0.00 0.00 28
20210920205855 68 84 1.0 10.0 0.00 0.00 0.00 26
20210920205345 68 141 1.0 10.0 0.00 0.00 0.00 25
20210920204956 68 66 4.0 10.0 0.00 0.00 0.00 26
20210920204839 68 139 0.0 10.0 0.00 0.00 0.00 28
20210920204334 67 194 0.0 10.0 0.00 0.00 0.00 26
20210920203957 67 236 0.0 5.0 0.00 0.00 0.00 27
20210920203829 67 189 0.0 8.0 0.00 0.00 0.00 27
20210920203322 67 23 1.0 8.0 0.00 0.00 0.00 28
20210920202955 67 84 1.0 13.0 0.00 0.00 0.00 27
20210920202816 67 163 1.0 13.0 0.00 0.00 0.00 27
20210920202311 67 320 3.0 13.0 0.00 0.00 0.00 28
20210920201956 67 76 4.0 8.0 0.00 0.00 0.00 26
20210920201806 67 38 4.0 15.0 0.00 0.00 0.00 27
20210920201301 67 255 1.0 15.0 0.00 0.00 0.00 28
20210920200956 67 288 4.0 15.0 0.00 0.00 0.00 28
20210920200755 67 120 0.0 10.0 0.00 0.00 0.00 28
20210920200250 67 108 0.0 10.0 0.00 0.00 0.00 29
20210920195945 67 197 4.0 10.0 0.00 0.00 0.00 28
20210920195745 67 58 2.0 10.0 0.00 0.00 0.00 28
20210920195240 67 208 0.0 8.0 0.00 0.00 0.00 30
20210920194935 67 69 3.0 8.0 0.00 0.00 0.00 28
20210920194735 67 274 3.0 8.0 0.00 0.00 0.00 29
20210920194230 67 70 5.0 8.0 0.00 0.00 0.00 28
20210920193936 67 8 1.0 8.0 0.00 0.00 0.00 28
20210920193725 67 173 0.0 5.0 0.00 0.00 0.00 28
20210920193219 67 185 0.0 8.0 0.00 0.00 0.00 28
20210920192925 66 82 0.0 8.0 0.00 0.00 0.00 30
20210920192714 66 76 2.0 8.0 0.00 0.00 0.00 30
20210920192209 66 231 0.0 8.0 0.00 0.00 0.00 30
20210920191925 66 72 2.0 8.0 0.00 0.00 0.00 30
20210920191703 66 346 3.0 8.0 0.00 0.00 0.00 30
20210920191158 66 74 5.0 8.0 0.00 0.00 0.00 29
20210920190925 66 91 2.0 8.0 0.00 0.00 0.00 29
20210920190653 66 49 6.0 13.0 0.00 0.00 0.00 30
20210920190147 66 112 0.0 13.0 0.00 0.00 0.00 31
20210920185916 66 60 1.0 13.0 0.00 0.00 0.00 30
20210920185642 66 63 4.0 8.0 0.00 0.00 0.00 30
20210920185137 66 296 5.0 8.0 0.00 0.00 0.00 31
20210920184916 66 84 5.0 8.0 0.00 0.00 0.00 30
20210920184632 66 72 2.0 10.0 0.00 0.00 0.00 29
20210920184126 66 288 2.0 10.0 0.00 0.00 0.00 33
20210920183905 66 20 6.0 10.0 0.00 0.00 0.00 31
20210920183623 66 127 1.0 10.0 0.00 0.00 0.00 32
20210920183118 66 258 2.0 8.0 0.00 0.00 0.00 30
20210920182856 66 86 1.0 10.0 0.00 0.00 0.00 28
20210920182612 66 224 1.0 10.0 0.00 0.00 0.00 28
20210920182107 66 61 2.0 10.0 0.00 0.00 0.00 30
20210920181846 66 232 0.0 10.0 0.00 0.00 0.00 28
20210920181603 66 232 4.0 10.0 0.00 0.00 0.00 28
20210920181058 66 196 0.0 8.0 0.00 0.00 0.00 30
20210920180837 66 75 3.0 8.0 0.00 0.00 0.00 25
20210920180553 66 51 3.0 8.0 0.00 0.00 0.00 25
20210920180049 66 134 0.0 10.0 0.00 0.00 0.00 28
20210920175827 66 62 2.0 10.0 0.00 0.00 0.00 28
20210920175545 66 212 1.0 10.0 0.00 0.00 0.00 27
20210920175040 66 95 1.0 10.0 0.00 0.00 0.00 28
20210920174819 66 185 0.0 10.0 0.00 0.00 0.00 26
20210920174536 66 233 1.0 10.0 0.00 0.00 0.00 26
20210920174031 66 49 5.0 8.0 0.00 0.00 0.00 27
20210920173809 66 209 0.0 8.0 0.00 0.00 0.00 26
20210920173525 66 279 3.0 8.0 0.00 0.00 0.00 28
20210920173021 66 204 0.0 8.0 0.00 0.00 0.00 25
20210920172759 66 244 1.0 8.0 0.00 0.00 0.00 26
20210920172516 66 270 2.0 8.0 0.00 0.00 0.00 25
20210920172010 66 57 4.0 8.0 0.00 0.00 0.00 26
20210920171800 66 96 0.0 8.0 0.00 0.00 0.00 25
20210920171506 66 206 1.0 10.0 0.00 0.00 0.00 25
20210920171000 66 221 0.0 10.0 0.00 0.00 0.00 26
20210920170804 65 264 3.0 10.0 0.00 0.00 0.00 27
20210920170455 65 206 2.0 5.0 0.00 0.00 0.00 26
20210920165950 65 168 0.0 8.0 0.00 0.00 0.00 27
20210920165750 65 92 0.0 8.0 0.00 0.00 0.00 27
20210920165445 65 95 2.0 8.0 0.00 0.00 0.00 28
20210920164940 64 199 0.0 5.0 0.00 0.00 0.00 28
20210920164741 64 265 0.0 8.0 0.00 0.00 0.00 29
20210920164436 64 284 2.0 8.0 0.00 0.00 0.00 27
20210920163931 64 80 3.0 8.0 0.00 0.00 0.00 28
20210920163731 64 156 0.0 5.0 0.00 0.00 0.00 29
20210920163423 64 66 4.0 5.0 0.00 0.00 0.00 30
20210920162917 64 123 1.0 5.0 0.00 0.00 0.00 30
20210920162729 64 245 0.0 5.0 0.00 0.00 0.00 34
20210920162412 64 177 0.0 5.0 0.00 0.00 0.00 31
20210920161907 63 219 0.0 5.0 0.00 0.00 0.00 33
20210920161718 63 110 0.0 5.0 0.00 0.00 0.00 34
20210920161402 63 6 1.0 2.0 0.00 0.00 0.00 34
20210920160857 62 231 0.0 2.0 0.00 0.00 0.00 35
20210920160708 62 188 0.0 2.0 0.00 0.00 0.00 35
20210920160352 62 342 1.0 8.0 0.00 0.00 0.00 36
20210920155848 62 253 0.0 8.0 0.00 0.00 0.00 37
20210920155659 62 87 1.0 8.0 0.00 0.00 0.00 36
20210920155342 61 73 2.0 5.0 0.00 0.00 0.00 35
20210920154837 61 199 2.0 5.0 0.00 0.00 0.00 36
20210920154700 61 148 0.0 5.0 0.00 0.00 0.00 38
20210920154333 61 69 4.0 5.0 0.00 0.00 0.00 38
20210920153827 60 139 0.0 8.0 0.00 0.00 0.00 39
20210920153649 60 206 0.0 8.0 0.00 0.00 0.00 39
20210920153322 60 128 0.0 8.0 0.00 0.00 0.00 41
20210920152818 60 202 0.0 5.0 0.00 0.00 0.00 42
20210920152650 60 107 2.0 5.0 0.00 0.00 0.00 41
20210920152313 60 182 0.0 5.0 0.00 0.00 0.00 42
20210920151808 59 74 1.0 10.0 0.00 0.00 0.00 43
20210920151641 59 210 0.0 10.0 0.00 0.00 0.00 44
20210920151303 59 116 0.0 10.0 0.00 0.00 0.00 41
20210920150758 59 246 0.0 10.0 0.00 0.00 0.00 46
20210920150642 59 118 1.0 10.0 0.00 0.00 0.00 44
20210920150253 58 277 0.0 5.0 0.00 0.00 0.00 39
20210920145748 58 214 0.0 5.0 0.00 0.00 0.00 41
20210920145632 58 243 0.0 5.0 0.00 0.00 0.00 40
20210920145243 57 279 0.0 8.0 0.00 0.00 0.00 40
20210920144738 56 122 0.0 8.0 0.00 0.00 0.00 40
20210920144623 56 60 6.0 8.0 0.00 0.00 0.00 39
20210920144234 56 64 1.0 5.0 0.00 0.00 0.00 42
20210920143728 56 244 2.0 5.0 0.00 0.00 0.00 44
20210920143621 55 249 2.0 5.0 0.00 0.00 0.00 45
20210920143219 55 98 0.0 5.0 0.00 0.00 0.00 45
20210920142716 55 129 0.0 5.0 0.00 0.00 0.00 45
20210920142620 55 59 4.0 5.0 0.00 0.00 0.00 45
20210920142210 54 175 2.0 10.0 0.00 0.00 0.00 45
20210920141705 54 166 0.0 10.0 0.00 0.00 0.00 47
20210920141609 54 71 1.0 10.0 0.00 0.00 0.00 46
20210920141200 53 80 0.0 5.0 0.00 0.00 0.00 46
20210920140654 53 274 3.0 5.0 0.00 0.00 0.00 50
20210920140600 52 209 1.0 5.0 0.00 0.00 0.00 54
20210920140149 52 137 0.0 8.0 0.00 0.00 0.00 50
20210920135645 52 122 0.0 8.0 0.00 0.00 0.00 53
20210920135601 52 95 2.0 8.0 0.00 0.00 0.00 52
20210920135137 52 286 2.0 8.0 0.00 0.00 0.00 57
20210920134633 52 132 0.0 2.0 0.00 0.00 0.00 57
20210920134600 52 119 0.0 2.0 0.00 0.00 0.00 57
20210920134126 51 216 0.0 8.0 0.00 0.00 0.00 60
20210920133622 51 168 0.0 8.0 0.00 0.00 0.00 59
20210920133559 51 125 0.0 8.0 0.00 0.00 0.00 58
20210920133121 51 73 3.0 8.0 0.00 0.00 0.00 51
20210920132621 51 174 0.0 5.0 0.00 0.00 0.00 50
20210920132559 51 174 0.0 5.0 0.00 0.00 0.00 51
20210920132116 50 184 0.0 2.0 0.00 0.00 0.00 54
20210920131611 50 181 0.0 2.0 0.00 0.00 0.00 53
20210920131548 50 180 0.0 2.0 0.00 0.00 0.00 53
20210920131106 50 195 0.0 2.0 0.00 0.00 0.00 55
20210920130602 51 179 0.0 2.0 0.00 0.00 0.00 55
20210920130540 51 180 0.0 2.0 0.00 0.00 0.00 54
20210920130058 51 196 0.0 2.0 0.00 0.00 0.00 56
20210920125552 51 178 0.0 2.0 0.00 0.00 0.00 52
20210920125534 51 197 0.0 2.0 0.00 0.00 0.00 53
20210920125048 51 203 0.0 0.0 0.00 0.00 0.00 56
20210920124543 51 203 0.0 2.0 0.00 0.00 0.00 52
20210920124522 51 209 0.0 2.0 0.00 0.00 0.00 52
20210920124038 51 224 0.0 5.0 0.00 0.00 0.00 50
20210920123534 51 207 0.0 5.0 0.00 0.00 0.00 50
20210920123512 51 198 2.0 5.0 0.00 0.00 0.00 51
20210920123029 51 189 0.0 0.0 0.00 0.00 0.00 54
20210920122525 52 190 0.0 0.0 0.00 0.00 0.00 55
20210920122503 52 190 0.0 0.0 0.00 0.00 0.00 54
20210920122019 53 186 0.0 0.0 0.00 0.00 0.00 51
20210920121516 53 181 0.0 0.0 0.00 0.00 0.00 51
20210920121454 53 181 0.0 0.0 0.00 0.00 0.00 50
20210920121011 53 169 0.0 2.0 0.00 0.00 0.00 49
20210920120507 54 150 0.0 2.0 0.00 0.00 0.00 48
20210920120445 54 150 0.0 2.0 0.00 0.00 0.00 48
20210920120002 54 157 0.0 5.0 0.00 0.00 0.00 46
20210920115448 54 190 1.0 8.0 0.00 0.00 0.00 45
20210920114948 54 193 0.0 8.0 0.00 0.00 0.00 44
20210920114441 0 0.0 0.0 0.00 0.00 0.00
20210920065518 59 221 0.0 10.0 0.00 0.00 0.00 56
20210920065014 60 65 6.0 8.0 0.00 0.00 0.00 56
20210920064829 60 254 4.0 8.0 0.00 0.00 0.00 56
20210920064514 60 137 0.0 8.0 0.00 0.00 0.00 56
20210920063959 60 191 0.0 15.0 0.00 0.00 0.00 56
20210920063810 60 181 3.0 15.0 0.00 0.00 0.00 55